Find Starlink 31334

NORAD ID: 59157 Int'l Des: 2024-044 Owner: SPXS Country: US Constellation: starlink operational
LEOCIRCULAR

Live Position

Loading 3D Globe...

About Starlink 31334

Description loading...

Upcoming Passes

Passes for default location (London). Set your location on the main map for personalized predictions.

Altitude History

Loading altitude history...

Two-Line Element Set

1 59157U 24044F 26110.40207126 -.00002156 00000-0 -68870-4 0 9992
2 59157 43.0038 235.0137 0001384 251.1552 108.9150 15.27567387119900
Epoch: Apr 20, 2026 • Age: 12 hours

Current Status

Altitude 495.5 km
Velocity 7.62 km/s
Sub-Earth Point -43.07°S, 38.45°W
Launch Date Mar 4, 2024
Age 2.1 years
Type internet

Technical Details

Classification Payload
Mass 730.00 kg
Dry Mass 700.00 kg
Total Mass 730.00 kg
Length 0.30 m
Diameter 4.10 m
Span 29.00 m
Shape Box + pan
Manufacturer SPXS
Bus Type Starlink V2M
Phase Status In Orbit
Owner/State SPXS/US

Most Searched